1505066400.5,34258,15.25,73676.5,5.07,4.27,4.33,0,*72
1505066401.68,34259,15.25,73674.3,5.07,4.27,4.27,0,*76
1505066402.85,34260,15.31,73678.5,5.07,4.27,4.27,0,*7C
1505066404.04,34261,15.25,73678.3,5.07,4.27,4.33,0,*78
1505066405.21,34262,15.25,73676.0,5.07,4.27,4.27,0,*7E
1505066406.38,34263,15.25,73676.5,5.07,4.23,4.27,0,*7B
1505066407.58,34264,15.25,73678.3,5.09,4.23,4.23,0,*76
1505066408.76,34265,15.25,73674.5,5.07,4.15,4.23,0,*7C
1505066409.94,34266,15.31,73676.0,5.07,4.23,4.23,0,*7A
1505066411.12,34267,15.25,73674.8,5.07,4.15,4.23,0,*7E
1505066412.29,34268,15.31,73680.0,5.07,4.23,4.27,0,*70
1505066413.47,34269,15.25,73678.8,5.07,4.23,4.23,0,*75
1505066414.65,34270,15.25,73678.5,5.07,4.27,4.27,0,*7D
1505066415.82,34271,15.25,73676.3,5.07,4.23,4.23,0,*7C
1505066417.0,34272,15.25,73678.5,5.07,4.27,4.23,0,*7B
1505066418.18,34273,15.25,73676.8,5.07,4.27,4.27,0,*7E
1505066419.35,34274,15.25,73676.0,5.07,4.27,4.27,0,*79
1505066420.54,34275,15.25,73680.0,5.07,4.33,4.33,0,*78
1505066421.74,34276,15.25,73676.8,5.09,4.27,4.33,0,*70
1505066422.93,34277,15.25,73680.3,5.07,4.27,4.33,0,*7F
1505066424.14,34278,15.25,73678.0,5.09,4.27,4.33,0,*7E
1505066425.31,34279,15.31,73682.3,5.07,4.33,4.27,0,*71
1505066426.49,34280,15.25,73678.8,5.07,4.33,4.33,0,*72
1505066427.68,34281,15.31,73680.0,5.07,4.33,4.33,0,*73
1505066428.85,34282,15.25,73676.5,5.07,4.27,4.27,0,*70
1505066430.05,34283,15.25,73678.0,5.09,4.27,4.27,0,*7F
1505066431.25,34284,15.25,73678.5,5.09,4.27,4.27,0,*78
1505066432.43,34285,15.25,73676.8,5.07,4.27,4.27,0,*77
1505066433.6,34286,15.25,73678.0,5.07,4.27,4.27,0,*74
1505066434.79,34287,15.25,73678.0,5.07,4.33,4.33,0,*75
1505066435.97,34288,15.25,73674.5,5.07,4.33,4.33,0,*7A
1505066437.15,34289,15.25,73672.8,5.07,4.33,4.33,0,*7B
1505066438.33,34290,15.25,73674.8,5.07,4.27,4.27,0,*73
1505066439.51,34291,15.25,73676.3,5.07,4.33,4.33,0,*72
1505066440.69,34292,15.25,73680.5,5.07,4.33,4.27,0,*74
1505066441.87,34293,15.25,73684.8,5.07,4.33,4.33,0,*70
1505066443.08,34294,15.25,73682.8,5.09,4.33,4.33,0,*79
1505066444.25,34295,15.25,73684.5,5.07,4.33,4.27,0,*73
1505066445.46,34296,15.25,73680.8,5.09,4.33,4.33,0,*7B
1505066446.64,34297,15.31,73682.5,5.07,4.27,4.33,0,*71
1505066447.83,34298,15.25,73682.5,5.07,4.33,4.33,0,*7B
1505066449.03,34299,15.25,73680.3,5.09,4.33,4.33,0,*74
1505066450.24,34300,15.25,73676.8,5.09,4.33,4.33,0,*75
1505066451.42,34301,15.25,73680.5,5.07,4.27,4.27,0,*7A
1505066452.62,34302,15.25,73676.8,5.09,4.27,4.27,0,*77
1505066453.81,34303,15.25,73678.5,5.09,4.27,4.27,0,*76
1505066455.0,34304,15.25,73680.5,5.07,4.33,4.33,0,*7F
1505066456.18,34305,15.25,73682.3,5.07,4.33,4.33,0,*7E
1505066457.38,34306,15.25,73682.3,5.09,4.33,4.27,0,*76
1505066458.58,34307,15.25,73682.3,5.09,4.33,4.27,0,*77
1505066459.79,34308,15.25,73680.3,5.09,4.37,4.37,0,*7D
1505066461.0,34309,15.25,73686.0,5.09,4.37,4.37,0,*7C
1505066462.19,34310,15.25,73680.8,5.07,4.37,4.37,0,*7A
1505066463.4,34311,15.25,73686.0,5.09,4.37,4.37,0,*75
1505066464.61,34312,15.25,73686.8,5.09,4.37,4.37,0,*76
1505066465.82,34313,15.31,73686.3,5.09,4.37,4.37,0,*77
1505066467.03,34314,15.25,73686.0,5.09,4.33,4.33,0,*70
1505066468.23,34315,15.25,73682.8,5.09,4.33,4.33,0,*71
1505066469.44,34316,15.25,73684.3,5.09,4.27,4.33,0,*77
1505066470.65,34317,15.25,73682.8,5.09,4.33,4.33,0,*73
1505066471.86,34318,15.25,73686.0,5.09,4.37,4.33,0,*78
1505066473.07,34319,15.25,73680.8,5.09,4.37,4.33,0,*79
1505066474.28,34320,15.31,73684.3,5.09,4.37,4.33,0,*73
1505066475.49,34321,15.25,73686.0,5.09,4.37,4.37,0,*76
1505066476.7,34322,15.25,73686.0,5.09,4.41,4.41,0,*75
1505066477.91,34323,15.25,73682.5,5.09,4.37,4.41,0,*75
1505066479.08,34324,15.25,73686.3,5.11,4.41,4.45,0,*7E
1505066480.26,34325,15.25,73686.5,5.11,4.41,4.45,0,*7F
1505066481.43,34326,15.25,73686.0,5.11,4.41,4.41,0,*78
1505066482.63,34327,15.25,73686.8,5.13,4.49,4.45,0,*77
1505066483.8,34328,15.25,73684.5,5.11,4.41,4.45,0,*72
1505066484.98,34329,15.25,73684.3,5.11,4.41,4.45,0,*73
1505066486.16,34330,15.25,73686.5,5.11,4.41,4.41,0,*7F
1505066487.34,34331,15.25,73686.0,5.11,4.41,4.41,0,*7E
1505066488.51,34332,15.25,73686.8,5.11,4.45,4.45,0,*7D
1505066489.69,34333,15.25,73684.8,5.11,4.41,4.41,0,*7C
1505066490.87,34334,15.25,73686.5,5.11,4.41,4.41,0,*7B
1505066492.05,34335,15.25,73690.8,5.11,4.41,4.41,0,*7A
1505066493.23,34336,15.25,73688.5,5.11,4.37,4.41,0,*78
1505066494.44,34337,15.25,73688.0,5.11,4.37,4.31,0,*7E
1505066495.64,34338,15.25,73690.0,5.13,4.33,4.41,0,*70
1505066496.84,34339,15.25,73690.5,5.13,4.41,4.41,0,*74
1505066498.05,34340,15.25,73694.3,5.11,4.31,4.37,0,*7E
1505066499.26,34341,15.25,73692.0,5.11,4.31,4.37,0,*7F
1505066500.5,34342,15.25,73690.5,5.11,4.31,4.31,0,*7A
1505066501.7,34343,15.25,73686.3,5.11,4.27,4.31,0,*7C
1505066502.93,34344,15.25,73686.5,5.11,4.31,4.31,0,*7C
1505066504.13,34345,15.25,73686.0,5.13,4.41,4.33,0,*7A
1505066505.32,34346,15.25,73684.0,5.11,4.37,4.37,0,*7E
1505066506.53,34347,15.25,73686.5,5.11,4.31,4.37,0,*79
1505066507.73,34348,15.25,73684.3,5.13,4.33,4.33,0,*72
1505066508.91,34349,15.25,73680.3,5.11,4.33,4.33,0,*71
1505066510.14,34350,15.25,73682.0,5.13,4.33,4.31,0,*79
1505066511.35,34351,15.25,73682.8,5.11,4.31,4.37,0,*7E
1505066512.54,34352,15.25,73684.5,5.13,4.23,4.23,0,*79
1505066513.71,34353,15.25,73682.8,5.11,4.19,4.19,0,*7A
1505066514.88,34354,15.25,73680.3,5.11,4.19,4.19,0,*7D
1505066516.08,34355,15.25,73684.8,5.13,4.19,4.11,0,*76
1505066517.25,34356,15.25,73684.5,5.11,4.19,4.19,0,*7F
1505066518.44,34357,15.25,73686.3,5.13,4.23,4.23,0,*7C
1505066519.69,34358,15.31,73690.8,5.13,3.97,4.01,0,*7B
1505066520.89,34359,15.25,73688.0,5.11,3.93,4.05,0,*78
1505066522.07,34360,15.25,73688.5,5.11,4.07,4.15,0,*79
1505066523.27,34361,15.25,73690.0,5.11,4.05,4.15,0,*7A
1505066524.45,34362,15.25,73686.5,5.11,4.07,4.19,0,*77
1505066525.62,34363,15.25,73684.3,5.11,4.19,4.19,0,*79
1505066526.79,34364,15.25,73686.0,5.11,4.19,4.27,0,*73
1505066527.96,34365,15.25,73682.5,5.11,4.15,4.19,0,*73
1505066529.13,34366,15.25,73684.8,5.11,4.19,4.27,0,*71
1505066530.3,34367,15.25,73682.0,5.11,4.15,4.27,0,*7C
1505066531.48,34368,15.25,73682.8,5.11,4.15,4.19,0,*7E
1505066532.67,34369,15.25,73680.8,5.13,4.11,4.19,0,*79
1505066533.85,34370,15.31,73684.3,5.11,4.15,4.19,0,*77
1505066535.02,34371,15.25,73684.3,5.11,4.19,4.19,0,*7A
1505066536.22,34372,15.25,73682.8,5.11,4.19,4.31,0,*73
1505066537.45,34373,15.25,73680.8,5.13,4.31,4.41,0,*7D
1505066538.65,34374,15.25,73682.0,5.11,4.19,4.31,0,*75
1505066539.86,34375,15.25,73680.0,5.11,4.27,4.31,0,*79
1505066541.09,34376,15.25,73680.0,5.13,4.31,4.33,0,*7D
1505066542.29,34377,15.25,73682.5,5.13,4.23,4.41,0,*7A
1505066543.46,34378,15.25,73680.5,5.11,4.19,4.27,0,*7E
1505066544.66,34379,15.31,73686.8,5.11,3.97,4.15,0,*7F
1505066545.87,34380,15.25,73684.0,5.13,4.01,4.11,0,*77
1505066547.12,34381,15.25,73686.3,5.13,3.97,4.01,0,*7F
1505066548.34,34382,15.25,73682.3,5.11,3.97,4.05,0,*7A
1505066549.54,34383,15.25,73680.5,5.11,3.93,3.97,0,*73
1505066550.79,34384,15.25,73682.3,5.13,4.01,4.05,0,*76
1505066552.02,34385,15.25,73680.8,5.11,4.05,4.05,0,*71
1505066553.27,34386,15.25,73682.0,5.13,3.97,4.01,0,*78
1505066554.44,34387,15.25,73676.3,5.11,3.81,3.81,0,*73
1505066555.68,34388,15.25,73678.5,5.11,3.75,3.75,0,*7C
1505066556.88,34389,15.31,73682.3,5.13,3.85,3.89,0,*73
1505066558.08,34390,15.31,73678.3,5.11,3.93,3.97,0,*71
1505066559.3,34391,15.25,73678.0,5.11,3.97,4.05,0,*78
1505066560.53,34392,15.25,73676.8,5.09,3.93,4.01,0,*72
1505066561.71,34393,15.25,73678.5,5.11,4.15,4.15,0,*76
1505066562.88,34394,15.25,73674.3,5.11,4.15,4.15,0,*71
1505066564.06,34395,15.25,73674.0,5.11,4.07,4.07,0,*70
1505066565.26,34396,15.25,73672.0,5.13,4.19,4.11,0,*79
1505066566.46,34397,15.25,73674.8,5.11,4.07,3.97,0,*7C
1505066567.68,34398,15.25,73674.8,5.11,4.01,4.01,0,*7D
1505066568.85,34399,15.25,73674.0,5.11,3.85,3.85,0,*7C
1505066570.07,34400,15.25,73672.3,5.13,3.85,3.79,0,*7A
1505066571.29,34401,15.25,73674.0,5.13,3.79,3.85,0,*7B
1505066572.48,34402,15.25,73668.8,5.11,3.93,3.93,0,*79
1505066573.68,34403,15.25,73672.3,5.11,3.93,3.97,0,*7C
1505066574.88,34404,15.25,73674.0,5.13,4.07,4.11,0,*7A
1505066576.05,34405,15.25,73674.5,5.11,4.15,4.19,0,*72
1505066577.25,34406,15.25,73672.3,5.13,4.23,4.23,0,*7F
1505066578.42,34407,15.25,73670.3,5.11,4.27,4.19,0,*71
1505066579.59,34408,15.25,73674.0,5.11,4.27,4.15,0,*72
1505066580.77,34409,15.31,73674.5,5.11,4.19,4.07,0,*7D
1505066582.0,34410,15.25,73672.0,5.13,4.31,4.23,0,*7B
1505066583.17,34411,15.31,73672.8,5.11,4.19,4.19,0,*7B
1505066584.34,34412,15.25,73672.3,5.11,4.19,4.19,0,*78
1505066585.51,34413,15.25,73672.3,5.11,4.19,4.19,0,*79
1505066586.68,34414,15.25,73674.8,5.11,4.19,4.07,0,*71
1505066587.86,34415,15.25,73674.8,5.11,4.19,4.15,0,*73
1505066589.05,34416,15.25,73674.3,5.13,4.19,4.07,0,*71
1505066590.25,34417,15.25,73676.0,5.13,4.11,4.11,0,*7F
1505066591.43,34418,15.25,73678.8,5.11,4.15,4.15,0,*72
1505066592.63,34419,15.25,73680.0,5.13,4.11,4.11,0,*71
1505066593.82,34420,15.25,73682.8,5.13,4.19,4.19,0,*7B
1505066595.01,34421,15.25,73682.3,5.13,4.19,4.19,0,*7A
1505066596.18,34422,15.25,73682.5,5.11,4.27,4.27,0,*7B
1505066597.36,34423,15.25,73680.0,5.11,4.27,4.19,0,*77
1505066598.53,34424,15.25,73684.8,5.11,4.19,4.19,0,*7D
1505066599.7,34425,15.25,73682.5,5.11,4.15,4.15,0,*7C
1505066600.9,34426,15.25,73686.0,5.13,4.11,4.11,0,*7D
1505066602.09,34427,15.25,73686.8,5.13,4.19,4.19,0,*7C
1505066603.29,34428,15.25,73686.3,5.13,4.07,4.11,0,*74
1505066604.5,34429,15.25,73688.3,5.11,4.05,4.07,0,*72
1505066605.67,34430,15.25,73682.8,5.11,4.15,4.19,0,*74
1505066606.88,34431,15.25,73690.5,5.11,4.07,4.05,0,*7B
1505066608.1,34432,15.25,73686.5,5.11,3.97,3.97,0,*7A
1505066609.29,34433,15.25,73688.8,5.13,4.19,4.11,0,*71
1505066610.47,34434,15.25,73688.5,5.11,4.07,4.07,0,*7C
1505066611.65,34435,15.31,73694.5,5.11,4.07,4.07,0,*7D
1505066612.87,34436,15.25,73688.3,5.13,4.01,4.07,0,*7A
1505066614.08,34437,15.25,73690.0,5.11,4.05,3.93,0,*77
1505066615.33,34438,15.25,73690.3,5.13,3.97,4.01,0,*7A
1505066616.53,34439,15.25,73692.3,5.11,3.97,3.93,0,*75
1505066617.75,34440,15.25,73694.8,5.15,4.01,3.97,0,*73
1505066618.95,34441,15.25,73692.5,5.11,4.07,3.97,0,*70
1505066620.16,34442,15.25,73692.0,5.13,4.11,4.07,0,*78
1505066621.33,34443,15.25,73694.5,5.11,4.19,4.07,0,*73
1505066622.54,34444,15.25,73690.8,5.13,4.07,4.07,0,*79
1505066623.73,34445,15.25,73694.0,5.13,4.19,4.19,0,*78
1505066624.9,34446,15.25,73694.0,5.11,4.15,4.19,0,*75
1505066626.09,34447,15.25,73692.8,5.13,4.19,4.19,0,*7A
1505066627.3,34448,15.25,73692.3,5.13,4.07,4.07,0,*75
1505066628.53,34449,15.25,73690.0,5.11,4.05,4.05,0,*76
1505066629.74,34450,15.25,73690.0,5.11,4.05,4.07,0,*7C
1505066630.93,34451,15.25,73690.0,5.13,4.11,4.11,0,*7D
1505066632.13,34452,15.25,73692.5,5.13,4.07,4.11,0,*79
1505066633.31,34453,15.31,73698.3,5.11,4.15,4.15,0,*7D
1505066634.5,34454,15.25,73694.5,5.13,4.23,4.19,0,*71
1505066635.68,34455,15.25,73692.5,5.11,4.15,4.15,0,*7B
1505066636.88,34456,15.31,73692.3,5.13,4.07,4.07,0,*7A
1505066638.09,34457,15.25,73690.3,5.11,3.75,3.81,0,*72
1505066639.32,34458,15.25,73688.5,5.11,3.75,3.71,0,*72
1505066640.55,34459,15.25,73684.3,5.11,3.71,3.75,0,*73
1505066641.73,34460,15.25,73682.0,5.11,3.81,3.81,0,*7D
1505066642.91,34461,15.25,73684.0,5.11,3.85,3.93,0,*7B
1505066644.11,34462,15.25,73684.5,5.11,4.07,4.05,0,*7D
1505066645.32,34463,15.31,73686.0,5.11,4.05,4.07,0,*7C
1505066646.49,34464,15.25,73686.8,5.11,4.15,4.19,0,*75
1505066647.69,34465,15.25,73684.3,5.11,4.31,4.27,0,*7F
1505066648.9,34466,15.25,73684.0,5.11,4.37,4.31,0,*7D
1505066650.1,34467,15.25,73686.8,5.13,4.41,4.41,0,*78
1505066651.31,34468,15.25,73686.3,5.11,4.31,4.37,0,*73
1505066652.51,34469,15.31,73690.8,5.11,4.31,4.27,0,*73
1505066653.68,34470,15.25,73692.0,5.11,4.19,4.19,0,*7C
1505066654.85,34471,15.25,73686.8,5.11,4.07,4.15,0,*7E
1505066656.05,34472,15.25,73686.0,5.13,4.11,4.19,0,*74
1505066657.25,34473,15.25,73686.0,5.13,4.19,4.23,0,*74
1505066658.44,34474,15.25,73688.8,5.13,4.19,4.23,0,*73
1505066659.62,34475,15.25,73686.3,5.11,4.15,4.19,0,*75
1505066660.79,34476,15.25,73686.5,5.11,4.15,4.19,0,*76
1505066661.96,34477,15.25,73686.5,5.11,4.19,4.27,0,*76
1505066663.19,34478,15.25,73686.8,5.13,4.23,4.31,0,*75
1505066664.39,34479,15.25,73682.0,5.13,4.23,4.41,0,*73
1505066665.59,34480,15.25,73682.3,5.13,4.23,4.33,0,*70
1505066666.79,34481,15.25,73682.0,5.11,4.19,4.31,0,*78
1505066668.0,34482,15.25,73680.0,5.11,4.27,4.31,0,*76
1505066669.2,34483,15.25,73682.0,5.13,4.23,4.33,0,*73
1505066670.41,34484,15.25,73682.3,5.11,4.27,4.31,0,*70
1505066671.58,34485,15.31,73686.8,5.11,4.19,4.19,0,*76
1505066672.77,34486,15.25,73684.0,5.13,4.19,4.23,0,*7E
1505066673.97,34487,15.25,73680.8,5.13,4.11,4.19,0,*7E
1505066675.16,34488,15.25,73680.0,5.13,4.19,4.19,0,*79
1505066676.36,34489,15.25,73682.5,5.13,4.19,4.33,0,*70
1505066677.54,34490,15.25,73680.8,5.11,4.07,4.27,0,*70
1505066678.76,34491,15.25,73680.5,5.13,4.23,4.31,0,*72
1505066679.96,34492,15.25,73678.3,5.11,4.19,4.31,0,*7A
1505066681.14,34493,15.25,73682.0,5.11,4.19,4.27,0,*7C
1505066682.32,34494,15.25,73678.8,5.11,4.37,4.37,0,*76
1505066683.52,34495,15.25,73678.3,5.13,4.33,4.41,0,*70
1505066684.73,34496,15.25,73678.8,5.11,4.27,4.31,0,*73
1505066685.96,34497,15.25,73680.0,5.13,4.23,4.31,0,*74
1505066687.19,34498,15.31,73680.8,5.13,4.31,4.33,0,*7A
1505066688.41,34499,15.25,73678.0,5.13,4.23,4.31,0,*7A
1505066689.61,34500,15.25,73676.5,5.13,4.11,4.23,0,*79
1505066690.81,34501,15.25,73676.3,5.13,4.23,4.23,0,*79
1505066692.01,34502,15.25,73676.0,5.11,4.05,4.07,0,*7A
1505066693.26,34503,15.25,73674.8,5.13,3.97,4.01,0,*73
1505066694.46,34504,15.25,73678.8,5.11,3.93,3.97,0,*7A
1505066695.68,34505,15.25,73676.3,5.13,4.01,4.11,0,*7C
1505066696.87,34506,15.25,73678.0,5.13,4.11,4.19,0,*76
1505066698.05,34507,15.25,73676.3,5.11,4.07,4.15,0,*7E
1505066699.22,34508,15.25,73674.8,5.11,4.15,4.27,0,*73
1505066700.4,34509,15.25,73674.8,5.11,4.19,4.27,0,*7E
1505066701.57,34510,15.25,73672.3,5.11,4.19,4.23,0,*72
1505066702.74,34511,15.25,73678.3,5.11,4.15,4.19,0,*76
1505066703.97,34512,15.25,73676.0,5.13,4.19,4.31,0,*71
1505066705.15,34513,15.25,73676.3,5.11,4.27,4.37,0,*79
1505066706.35,34514,15.25,73676.5,5.13,4.33,4.41,0,*78
1505066707.55,34515,15.25,73680.8,5.13,4.41,4.33,0,*79
1505066708.75,34516,15.25,73676.0,5.13,4.41,4.41,0,*7F
1505066709.96,34517,15.25,73676.8,5.13,4.41,4.33,0,*7B
1505066711.18,34518,15.25,73676.3,5.13,4.41,4.31,0,*76
1505066712.43,34519,15.25,73678.8,5.13,4.31,4.31,0,*70
1505066713.66,34520,15.25,73676.8,5.13,4.31,4.23,0,*79
1505066714.89,34521,15.25,73680.3,5.13,4.31,4.33,0,*79
1505066716.11,34522,15.25,73678.0,5.13,4.31,4.27,0,*7F
1505066717.31,34523,15.25,73676.5,5.13,4.23,4.23,0,*79
1505066718.48,34524,15.25,73682.5,5.11,4.27,4.27,0,*7C
1505066719.74,34525,15.25,73678.0,5.13,4.31,4.31,0,*7F
1505066720.99,34526,15.31,73680.3,5.13,4.31,4.31,0,*7C
1505066722.2,34527,15.25,73676.0,5.13,4.33,4.33,0,*7D
1505066723.4,34528,15.25,73682.5,5.13,4.33,4.41,0,*77
1505066724.62,34529,15.31,73682.8,5.13,4.31,4.23,0,*70
1505066725.88,34530,15.25,73678.5,5.13,4.31,4.31,0,*7B
1505066727.11,34531,15.25,73678.5,5.13,4.31,4.33,0,*78
1505066728.3,34532,15.25,73676.0,5.11,4.37,4.37,0,*7B
1505066729.5,34533,15.25,73678.3,5.13,4.41,4.41,0,*78
1505066730.69,34534,15.25,73676.5,5.13,4.41,4.45,0,*7B
1505066731.88,34535,15.25,73678.5,5.11,4.37,4.41,0,*7D
1505066733.06,34536,15.25,73678.3,5.15,4.45,4.45,0,*7B
1505066734.25,34537,15.25,73682.0,5.13,4.49,4.49,0,*7C
1505066735.44,34538,15.25,73680.0,5.13,4.45,4.49,0,*7F
1505066736.62,34539,15.25,73682.5,5.15,4.45,4.45,0,*74
1505066737.79,34540,15.25,73682.8,5.15,4.49,4.45,0,*76
1505066738.97,34541,15.25,73682.0,5.15,4.45,4.45,0,*7B
1505066740.14,34542,15.25,73678.0,5.15,4.33,4.45,0,*79
1505066741.33,34543,15.31,73676.5,5.15,4.33,4.41,0,*7C
1505066742.54,34544,15.25,73674.8,5.15,4.31,4.33,0,*7C
1505066743.74,34545,15.25,73674.5,5.15,4.19,4.31,0,*75
1505066744.95,34546,15.25,73678.5,5.15,4.11,4.31,0,*7E
1505066746.15,34547,15.25,73686.3,5.15,4.19,4.31,0,*77
1505066747.38,34548,15.31,73684.3,5.13,4.23,4.31,0,*77
1505066748.59,34549,15.25,73676.5,5.15,4.31,4.33,0,*71
1505066749.8,34550,15.25,73678.0,5.15,4.23,4.31,0,*78
1505066750.97,34551,15.25,73682.8,5.15,4.23,4.23,0,*7A
1505066752.15,34552,15.25,73686.3,5.15,4.11,4.23,0,*78
1505066753.35,34553,15.25,73684.3,5.15,3.97,4.11,0,*71
1505066754.58,34554,15.31,73686.5,5.15,3.75,4.01,0,*7B
1505066755.76,34555,15.25,73688.8,5.15,3.25,3.89,0,*78
1505066756.97,34556,15.25,73682.8,5.15,2.95,3.75,0,*72
1505066758.17,34557,15.25,73682.5,5.15,2.95,3.67,0,*70
1505066759.37,34558,15.25,73686.8,5.15,2.95,3.75,0,*7C
1505066760.58,34559,15.25,73682.8,5.15,2.65,3.37,0,*74
1505066761.8,34560,15.31,73684.0,5.15,1.93,3.19,0,*78
1505066762.98,34561,15.25,73680.0,5.15,1.75,3.25,0,*7E
1505066764.15,34562,15.25,73682.5,5.15,2.35,3.59,0,*71
1505066765.33,34563,15.31,73684.8,5.15,2.95,3.63,0,*73
1505066766.51,34564,15.25,73676.8,5.15,2.91,3.59,0,*79
1505066767.73,34565,15.25,73672.8,5.13,2.95,3.53,0,*70
1505066768.94,34566,15.25,73682.5,5.13,2.95,3.53,0,*73
1505066770.17,34567,15.25,73682.3,5.13,3.25,3.67,0,*7F
1505066771.36,34568,15.25,73682.3,5.13,3.25,3.63,0,*74
1505066772.56,34569,15.25,73682.3,5.13,3.25,3.63,0,*75
1505066773.82,34570,15.25,73676.0,5.13,3.03,3.49,0,*71
1505066775.06,34571,15.25,73676.8,5.13,3.41,3.67,0,*7A
1505066776.28,34572,15.25,73678.5,5.13,3.49,3.63,0,*75
1505066777.46,34573,15.25,73680.8,5.15,3.59,3.63,0,*73
1505066778.68,34574,15.25,73682.5,5.15,3.37,3.53,0,*7F
1505066779.9,34575,15.31,73686.3,5.13,3.49,3.63,0,*72
1505066781.12,34576,15.25,73680.5,5.13,3.59,3.75,0,*77
1505066782.32,34577,15.25,73680.3,5.11,3.59,3.75,0,*74
1505066783.53,34578,15.25,73674.0,5.11,3.71,3.93,0,*79
1505066784.72,34579,15.25,73676.3,5.11,3.81,3.97,0,*73
1505066785.95,34580,15.25,73678.5,5.13,3.89,4.01,0,*77
1505066787.15,34581,15.25,73672.3,5.11,3.93,3.97,0,*77
1505066788.35,34582,15.25,73674.8,5.13,4.07,4.07,0,*72
1505066789.53,34583,15.25,73676.3,5.11,4.15,4.15,0,*71
1505066790.73,34584,15.25,73676.0,5.13,4.11,4.19,0,*7C
1505066791.92,34585,15.25,73676.0,5.13,4.11,4.19,0,*7D
1505066793.11,34586,15.25,73678.8,5.13,4.19,4.19,0,*76
1505066794.29,34587,15.31,73688.8,5.11,4.15,4.15,0,*75
1505066795.52,34588,15.25,73686.8,5.13,4.23,4.31,0,*7B
1505066796.72,34589,15.25,73680.3,5.11,4.07,4.05,0,*79
1505066797.95,34590,15.25,73678.0,5.13,4.07,4.01,0,*77
1505066799.15,34591,15.31,73682.3,5.11,3.93,4.05,0,*7A
1505066800.35,34592,15.25,73676.0,5.11,3.93,4.05,0,*79
1505066801.53,34593,15.25,73674.5,5.11,3.81,3.89,0,*78
1505066802.74,34594,15.25,73674.0,5.11,3.67,3.63,0,*73
1505066803.92,34595,15.25,73670.3,5.11,3.81,3.81,0,*76
1505066805.15,34596,15.25,73670.5,5.11,3.75,3.75,0,*75
1505066806.33,34597,15.25,73670.5,5.11,3.85,3.93,0,*73
1505066807.53,34598,15.25,73672.3,5.09,3.93,3.93,0,*72
1505066808.76,34599,15.25,73674.0,5.11,4.05,4.05,0,*7A
1505066809.96,34600,15.31,73680.5,5.13,4.19,4.19,0,*7B
1505066811.14,34601,15.25,73678.3,5.11,4.15,4.07,0,*7B
1505066812.32,34602,15.25,73678.0,5.11,4.07,4.07,0,*7B
1505066813.51,34603,15.25,73676.0,5.13,4.19,4.11,0,*70
1505066814.68,34604,15.25,73678.5,5.11,4.19,4.27,0,*70
1505066815.85,34605,15.31,73682.8,5.11,4.19,4.27,0,*71
1505066817.08,34606,15.25,73684.0,5.13,4.31,4.33,0,*7F
1505066818.26,34607,15.25,73682.5,5.11,4.41,4.33,0,*7B
1505066819.46,34608,15.25,73680.5,5.11,4.31,4.27,0,*76
1505066820.63,34609,15.25,73684.5,5.11,4.19,4.19,0,*70
1505066821.8,34610,15.25,73682.8,5.11,4.27,4.19,0,*75
1505066823.03,34611,15.25,73676.3,5.13,4.31,4.33,0,*79
1505066824.26,34612,15.25,73678.5,5.13,4.31,4.23,0,*7B
1505066825.49,34613,15.25,73676.0,5.13,4.23,4.31,0,*7A
1505066826.71,34614,15.25,73678.5,5.13,4.23,4.31,0,*7D
1505066827.94,34615,15.25,73676.0,5.13,4.23,4.31,0,*7C
1505066829.14,34616,15.25,73680.8,5.11,4.27,4.31,0,*79
1505066830.35,34617,15.25,73682.5,5.13,4.33,4.41,0,*78
1505066831.55,34618,15.25,73680.0,5.11,4.37,4.31,0,*76
1505066832.79,34619,15.25,73678.5,5.11,4.31,4.31,0,*71
1505066833.99,34620,15.25,73680.0,5.13,4.41,4.41,0,*79
1505066835.2,34621,15.25,73674.3,5.11,4.31,4.37,0,*7C
1505066836.43,34622,15.25,73678.0,5.13,4.31,4.33,0,*79
1505066837.66,34623,15.25,73672.5,5.11,4.31,4.31,0,*78
1505066838.89,34624,15.25,73668.8,5.11,4.31,4.31,0,*7F
1505066840.09,34625,15.25,73668.5,5.13,4.41,4.41,0,*7C
1505066841.27,34626,15.25,73670.0,5.11,4.33,4.41,0,*78
1505066842.47,34627,15.25,73672.5,5.13,4.41,4.41,0,*7E
1505066843.68,34628,15.25,73674.8,5.13,4.33,4.33,0,*71
1505066844.85,34629,15.31,73678.5,5.11,4.19,4.27,0,*7F
1505066846.08,34630,15.31,73678.0,5.13,4.33,4.31,0,*7A
1505066847.3,34631,15.25,73674.8,5.13,4.33,4.31,0,*7B
1505066848.53,34632,15.25,73678.5,5.13,4.31,4.23,0,*79
1505066849.75,34633,15.25,73678.0,5.13,4.31,4.23,0,*78
1505066850.95,34634,15.31,73682.0,5.13,4.23,4.23,0,*7C
1505066852.15,34635,15.25,73676.5,5.13,4.23,4.23,0,*7D
1505066853.33,34636,15.25,73678.5,5.11,4.07,4.07,0,*7C
1505066854.55,34637,15.25,73680.8,5.13,4.31,4.23,0,*7C
1505066855.73,34638,15.25,73678.0,5.11,4.27,4.19,0,*7F
1505066856.95,34639,15.25,73678.3,5.13,4.23,4.31,0,*72
1505066858.12,34640,15.25,73676.0,5.11,4.27,4.19,0,*70
1505066859.32,34641,15.31,73682.8,5.13,4.23,4.23,0,*7E
1505066860.5,34642,15.25,73676.0,5.11,4.15,4.07,0,*7C
1505066861.69,34643,15.25,73676.8,5.13,4.19,4.19,0,*7C
1505066862.89,34644,15.25,73676.8,5.13,4.23,4.23,0,*7B
1505066864.07,34645,15.31,73678.3,5.11,4.15,4.15,0,*78
1505066865.24,34646,15.31,73680.3,5.11,4.19,4.27,0,*76
1505066866.46,34647,15.25,73676.3,5.13,4.23,4.31,0,*7B
1505066867.69,34648,15.25,73678.3,5.13,4.31,4.41,0,*70
1505066868.9,34649,15.25,73670.0,5.13,4.33,4.33,0,*76
1505066870.08,34650,15.25,73672.8,5.11,4.37,4.37,0,*7C
1505066871.27,34651,15.25,73674.0,5.11,4.37,4.37,0,*7D
1505066872.47,34652,15.25,73674.3,5.13,4.41,4.45,0,*78
1505066873.66,34653,15.25,73674.5,5.13,4.45,4.45,0,*7D
1505066874.86,34654,15.25,73674.8,5.13,4.45,4.45,0,*7A
1505066876.04,34655,15.25,73674.5,5.11,4.45,4.41,0,*7D
1505066877.23,34656,15.25,73674.5,5.13,4.45,4.49,0,*74
1505066878.43,34657,15.25,73678.5,5.13,4.45,4.41,0,*7D
1505066879.63,34658,15.25,73676.8,5.13,4.41,4.41,0,*76
1505066880.82,34659,15.25,73680.8,5.13,4.49,4.49,0,*77
1505066881.99,34660,15.25,73678.0,5.15,4.49,4.49,0,*7B
1505066883.17,34661,15.25,73680.8,5.15,4.49,4.45,0,*76
1505066884.34,34662,15.31,73686.3,5.15,4.45,4.45,0,*79
1505066885.52,34663,15.25,73682.0,5.15,4.41,4.41,0,*78
1505066886.7,34664,15.25,73682.8,5.15,4.41,4.33,0,*7A
1505066887.89,34665,15.25,73680.0,5.15,4.33,4.33,0,*7E
1505066889.07,34666,15.25,73678.8,5.15,4.33,4.33,0,*7D
1505066890.27,34667,15.25,73678.3,5.13,4.41,4.41,0,*7A
1505066891.47,34668,15.25,73682.5,5.13,4.45,4.45,0,*75
1505066892.67,34669,15.25,73680.3,5.13,4.41,4.41,0,*74
1505066893.87,34670,15.25,73682.8,5.13,4.33,4.33,0,*7C
1505066895.05,34671,15.25,73682.0,5.15,4.41,4.41,0,*7B
1505066896.23,34672,15.25,73686.0,5.15,4.41,4.45,0,*7C
1505066897.41,34673,15.25,73684.3,5.15,4.45,4.45,0,*79
1505066898.59,34674,15.25,73684.5,5.15,4.45,4.41,0,*7A
1505066899.77,34675,15.25,73682.5,5.15,4.45,4.41,0,*7B
1505066900.94,34676,15.25,73680.0,5.15,4.49,4.45,0,*70
1505066902.12,34677,15.25,73680.0,5.15,4.45,4.49,0,*71
1505066903.31,34678,15.25,73680.5,5.17,4.49,4.49,0,*70
1505066904.54,34679,15.25,73682.5,5.17,4.59,4.53,0,*7B
1505066905.71,34680,15.25,73684.0,5.15,4.57,4.49,0,*7A
1505066906.92,34681,15.25,73680.0,5.19,4.59,4.53,0,*72
1505066908.15,34682,15.25,73684.0,5.17,4.59,4.53,0,*7F
1505066909.4,34683,15.25,73684.8,5.17,4.59,4.59,0,*74
1505066910.66,34684,15.25,73684.8,5.17,4.63,4.63,0,*73
1505066911.88,34685,15.25,73680.8,5.17,4.53,4.59,0,*78
1505066913.08,34686,15.25,73680.3,5.17,4.53,4.49,0,*7A
1505066914.26,34687,15.25,73682.8,5.19,4.53,4.53,0,*7E
1505066915.44,34688,15.25,73686.5,5.19,4.53,4.53,0,*71
1505066916.62,34689,15.25,73680.8,5.19,4.53,4.49,0,*7B
1505066917.79,34690,15.25,73680.5,5.19,4.49,4.49,0,*78
1505066918.96,34691,15.25,73676.3,5.19,4.49,4.49,0,*79
1505066920.15,34692,15.25,73680.0,5.17,4.49,4.49,0,*74
1505066921.35,34693,15.25,73676.5,5.17,4.49,4.53,0,*7E
1505066922.54,34694,15.25,73680.0,5.17,4.49,4.49,0,*72